Pratica di Mare, Italy

8:51 AM CEST on September 23, 2017 (GMT +0200)
Pratica Di Mare Mil

Weather History for LIRE - March, 2013

Change the Weather History Date:

Saturday, March 16, 2013

  Actual Average Record
Temperature  
Mean Temperature 42 °F -  
Max Temperature 51 °F 61 °F 64 °F (1999)
Min Temperature 34 °F 44 °F 34 °F (2013)
Degree Days  
Heating Degree Days 22    
Moisture  
Dew Point 31 °F    
Average Humidity 62    
Maximum Humidity 76    
Minimum Humidity 34    
Precipitation  
Precipitation 0.00 in 0.09 in - ()
Sea Level Pressure  
Sea Level Pressure 30.03 in    
Wind  
Wind Speed 7 mph ()    
Max Wind Speed 12 mph    
Max Gust Speed -    
Visibility 7.4 miles    
Events      
Averages and records for this station are not official NWS values.
T = Trace of Precipitation, MM = Missing Value Source: Averaged Metar Reports

Daily Weather History Graph

Daily Weather History Graph

Search for Another Location

Airport or City:

Trip Planner

Search our weather history database for the weather conditions in past years. The results will help you decide how hot, cold, wet, or windy it might be!

Date:

Astronomy

Mar. 16, 2013 Rise Set
Actual Time 6:20 AM CET 6:17 PM CET
Civil Twilight 5:52 AM CET 6:45 PM CET
Nautical Twilight 5:20 AM CET 7:18 PM CET
Astronomical Twilight 4:47 AM CET 7:50 PM CET
Moon 8:34 AM CET (3/16) 11:15 PM CET (3/16)
Length of Visible Light 12h 52m
Length of Day
11h 57m
Waxing Crescent, 21% of the Moon is Illuminated
Mar 16
Waxing Crescent
Mar 19
First Quarter
Mar 27
Full
Apr 3
Last Quarter
Apr 10
New

Hourly Weather History & Observations

Time (CET) Temp. Windchill Dew Point Humidity Pressure Visibility Wind Dir Wind Speed Gust Speed Precip Events Conditions
12:55 AM 35.6 °F 30.7 °F 28.4 °F 75% 29.89 in - North 5.8 mph - N/A   Clear
1:00 AM 36 °F - 29 °F 67% 29.89 in 9 mi North 5.8 mph - -  
1:55 AM 35.6 °F 30.7 °F 28.4 °F 75% 29.89 in - North 5.8 mph - N/A   Clear
2:55 AM 35.6 °F 29.9 °F 28.4 °F 75% 29.92 in - NNE 6.9 mph - N/A   Clear
3:55 AM 35.6 °F 28.0 °F 26.6 °F 70% 29.92 in - NNE 10.4 mph - N/A   Clear
4:00 AM 36 °F - 28 °F 61% 29.94 in 9 mi NNE 10.4 mph - -  
4:55 AM 35.6 °F 28.6 °F 26.6 °F 70% 29.92 in - NE 9.2 mph - N/A   Clear
5:55 AM 35.6 °F 29.2 °F 28.4 °F 75% 29.95 in - North 8.1 mph - N/A   Clear
6:55 AM 33.8 °F 26.4 °F 26.6 °F 75% 29.98 in - NNE 9.2 mph - N/A   Clear
7:00 AM 35 °F - 28 °F 65% 30.00 in 9 mi NNE 9.2 mph - -  
7:55 AM 37.4 °F 29.8 °F 28.4 °F 70% 29.98 in 6.2 mi NNE 11.5 mph - N/A   Partly Cloudy
8:55 AM 41.0 °F 35.2 °F 30.2 °F 65% 30.01 in 6.2 mi NNE 9.2 mph - N/A   Partly Cloudy
9:55 AM 46.4 °F 44.3 °F 35.6 °F 66% 30.04 in 6.2 mi ENE 4.6 mph - N/A   Partly Cloudy
11:55 AM 50.0 °F - 35.6 °F 58% 30.06 in 6.2 mi WNW 4.6 mph - N/A   Scattered Clouds
12:55 PM 48.2 °F - 35.6 °F 62% 30.06 in 6.2 mi SSW 9.2 mph - N/A   Scattered Clouds
1:00 PM 49 °F - 35 °F 48% 30.09 in 9 mi SSW 9.2 mph - -   Partly Cloudy
1:55 PM 50.0 °F - 33.8 °F 54% 30.09 in 6.2 mi SSW 8.1 mph - N/A   Scattered Clouds
2:55 PM 50.0 °F - 33.8 °F 54% 30.09 in 6.2 mi South 8.1 mph - N/A   Scattered Clouds
3:55 PM 50.0 °F - 30.2 °F 47% 30.09 in 6.2 mi South 6.9 mph - N/A   Scattered Clouds
4:00 PM 50 °F - 30 °F 34% 30.11 in 9 mi South 6.9 mph - -   Partly Cloudy
4:55 PM 50.0 °F - 26.6 °F 40% 30.09 in 6.2 mi SSW 5.8 mph - N/A   Partly Cloudy
6:55 PM 44.6 °F - 28.4 °F 53% 30.09 in - East 2.3 mph - N/A   Clear
7:00 PM 45 °F - 29 °F 40% 30.11 in 9 mi East 2.3 mph - -   Scattered Clouds
7:55 PM 41.0 °F 38.0 °F 30.2 °F 65% 30.09 in - East 4.6 mph - N/A   Clear
8:55 PM 42.8 °F 39.3 °F 30.2 °F 61% 30.12 in - East 5.8 mph - N/A   Clear
9:55 PM 42.8 °F 38.6 °F 32.0 °F 66% 30.12 in - East 6.9 mph - N/A   Clear
10:00 PM 42 °F - 31 °F 54% 30.14 in 9 mi East 6.9 mph - -   Clear
10:55 PM 42.8 °F 38.0 °F 35.6 °F 76% 30.12 in - East 8.1 mph - N/A   Clear
11:55 PM 42.8 °F 37.5 °F 35.6 °F 76% 30.12 in - East 9.2 mph - N/A   Clear